Zurück zum Katalog

STARLINK-3972

AktivKommunikationVLEO
NORAD 52669·PAYLOAD·🇺🇸 United States

Gestartet May 18, 2022 von Cape Canaveral Space Force Station

Loading…

Nächste Überflüge (nächste 24 Stunden)

TLE

AktuellSource: CelesTrak SupGP

Epoche: Sep 15, 2026, 02:39 UTC

1 52669C 22053P   26258.11090278  .00023282  00000+0  68815-3 0  2586
2 52669  53.1593  12.7325 0000892  64.7430 336.6623 15.34367291    10

Verfolge STARLINK-3972 in Echtzeit mit AllMySat

Download on the App Store